Location: Caltech
(34.1382°N, 118.1253°W)
Time: 03:43:21
(UTC-07:00)

Oscar 11 - Visible Passes

Search period start: 20 August 2014 00:00
Search period end: 30 August 2014 00:00
Orbit: 618 x 629 km, 97.8° (Epoch: 20 August)

Date Brightness Start Highest point End Pass type
(mag) Time Alt. Az. Time Alt. Az. Time Alt. Az.
20 Aug 7.9 22:01:09 45° N 22:01:09 45° N 22:04:12 10° N visible
21 Aug 9.2 20:42:41 11° ENE 20:42:41 11° ENE 20:43:45 10° NE visible
21 Aug 8.6 22:19:56 34° NW 22:19:56 34° NW 22:22:36 10° NNW visible
22 Aug 8.8 21:01:29 17° ENE 21:01:29 17° ENE 21:03:50 10° NNE visible
22 Aug 9.3 22:38:44 23° NW 22:38:44 23° NW 22:40:47 10° NNW visible
23 Aug 8.4 21:20:16 25° NE 21:20:16 25° NE 21:22:59 10° NNE visible
23 Aug 9.9 22:57:31 15° WNW 22:57:31 15° WNW 22:58:38 10° NW visible
24 Aug 8.2 21:39:04 33° NNE 21:39:04 33° NNE 21:41:49 10° N visible
25 Aug 8.4 21:57:51 35° N 21:57:51 35° N 22:00:26 10° N visible
26 Aug 8.9 22:16:39 29° NNW 22:16:39 29° NNW 22:18:51 10° NNW visible
27 Aug 9.0 20:58:11 15° NE 20:58:11 15° NE 20:59:52 10° NNE visible
27 Aug 9.5 22:35:27 21° NW 22:35:27 21° NW 22:37:05 10° NNW visible
28 Aug 8.8 21:16:59 21° NE 21:16:59 21° NE 21:19:06 10° NNE visible
28 Aug 10.0 22:54:14 14° NW 22:54:14 14° NW 22:55:01 10° NW visible
29 Aug 8.6 21:35:47 26° NNE 21:35:47 26° NNE 21:37:58 10° N visible
